[[{"header":{"parameterUnit":"m.s-1","parameterCategory":1,"la1":30.2991,"la2":30.254,"lo1":-89.0895,"lo2":-89.0444,"dy":0.0017,"dx":0.0017,"nx":28,"ny":28,"refTime":"2024-08-06T09:00:00:Z","depth":0,"parameterNumber":2,"parameterNumberName":"U-component_of_WINDS"},"data":[0,0,0,0,0,0,0,0,0,0,0,0,0,0,0,0,0,0,0,0,0,0,0,0,0,0,0,0,0,0,0,0,0,0,0,0,0,0,0,0,0,0,0,0,0,0,0,0,0,0,0,0,0,0,0,0,0,0,3.4352,3.4352,0,3.4392,3.4392,3.4392,3.427,3.4266,3.4262,3.4259,3.4304,3.4309,3.4313,0,0,0,0,0,0,0,0,0,0,0,0,0,3.4175,3.4179,3.4352,3.4352,3.4353,3.4391,3.4392,3.4393,3.427,3.4266,3.4261,3.4257,3.4303,3.4308,3.4314,0,0,0,0,0,0,0,0,0,0,0,0,0,3.4237,3.418,3.4352,3.4296,3.4292,3.4391,3.4392,3.4393,3.4271,3.4266,3.426,3.4255,3.4301,3.4308,3.4315,3.4471,0,0,3.4336,3.4339,0,0,0,0,0,0,0,0,3.4234,3.4244,3.4304,3.43,3.4295,3.432,3.4346,3.4419,3.4273,3.4279,3.4259,3.4252,3.4314,3.432,3.434,3.4473,3.4475,3.4337,3.4341,3.4344,3.4346,0,0,0,0,0,0,0,3.423,3.4241,3.4368,3.4305,3.43,3.4271,3.4274,3.4359,3.4328,3.4278,3.4269,3.4276,3.4311,3.4333,3.434,3.4476,3.4337,3.4343,3.4347,3.435,3.4742,3.4748,0,0,0,0,0,0,3.4232,3.4239,3.4366,3.4369,3.425,3.4279,3.4282,3.4318,3.4327,3.4323,3.428,3.427,3.4324,3.4332,3.4341,3.4527,3.4344,3.4351,3.4355,3.4736,3.4743,3.475,0,0,0,0,0,0,3.4229,3.4244,3.4365,3.4301,3.4314,3.4288,3.4329,3.4322,3.4344,3.4328,3.4322,3.4309,3.432,3.4331,3.444,3.4527,3.4354,3.436,3.4729,3.4738,3.4747,3.4899,0,0,0,0,0,0,3.4224,3.4244,3.4302,3.4303,3.4318,3.4462,3.4335,3.4326,3.4356,3.4342,3.4353,3.435,3.4316,3.443,3.4447,3.4533,3.4366,3.4721,3.4733,3.4744,3.4886,3.4912,3.4935,0,0,0,0,0,3.4218,3.4344,3.4305,3.4322,3.439,3.4467,3.4476,3.4433,3.4363,3.4422,3.4413,3.435,3.4514,3.4442,3.446,3.455,3.4715,3.4729,3.4743,3.4875,3.4907,3.4934,0,0,0,0,0,0,3.4354,3.4343,3.43,3.443,3.445,3.4446,3.4519,3.4468,3.451,3.4496,3.4442,3.4446,3.4565,3.4568,3.4488,3.4703,3.4603,3.4621,3.4697,3.4728,3.4751,3.475,3.4372,0,0,0,0,0,3.4399,3.4461,3.4448,3.4564,3.4576,3.4546,3.4578,3.4544,3.4563,3.4572,3.4569,3.4593,3.4649,3.4688,3.4739,3.4885,3.4887,3.4956,3.498,3.5,3.5018,3.5098,3.5129,3.4796,3.4795,3.4795,0,0,3.4493,3.4494,3.4537,3.4591,3.4603,3.4671,3.4554,3.463,3.468,3.4583,3.4686,3.4686,3.4708,3.4837,3.4893,3.4843,3.511,3.5018,3.5034,3.504,3.5115,3.5147,3.5175,3.4805,3.4803,3.4802,0,0,3.4699,3.4705,3.4803,3.4817,3.4836,3.4816,3.4839,3.4843,3.4839,3.4941,3.487,3.493,3.5028,3.5047,3.507,3.5285,3.523,3.5303,3.5431,3.551,3.5536,3.5559,3.5639,3.5668,3.5319,3.532,3.532,0,3.4815,3.4912,3.4861,3.4942,3.4969,3.4883,3.4983,3.5,3.5035,3.5057,3.4999,3.5122,3.513,3.5264,3.5316,3.5336,3.5364,3.5303,3.5536,3.5559,3.558,3.5655,3.5685,3.5329,3.5328,3.5327,3.5326,0,3.5054,3.5122,3.52,3.5235,3.527,3.5361,3.5326,3.5368,3.5331,3.5317,3.5423,3.543,3.5483,3.5511,3.5475,3.564,3.5609,3.5544,3.5443,3.5621,3.5691,3.5719,3.5342,3.5339,3.5336,3.5334,0,0,3.5349,3.5355,3.5384,3.54,3.5415,3.5468,3.5555,3.5605,3.5644,3.5671,3.5745,3.583,3.5771,3.5797,3.5763,3.5831,3.6005,3.5759,3.5758,3.5807,3.6191,3.6242,3.6276,3.5967,3.5972,3.5976,3.619,0,3.5554,3.5702,3.566,3.581,3.5874,3.5793,3.5869,3.5888,3.5878,3.5932,3.592,3.5983,3.5898,3.5914,3.5978,3.597,3.6082,3.5954,3.6038,3.6042,3.6039,3.6312,3.6365,3.6567,3.6217,3.6221,3.6225,0,3.5814,3.5851,3.6007,3.6012,3.6038,3.6107,3.6151,3.6202,3.6223,3.621,3.624,3.6192,3.628,3.6176,3.6298,3.6213,3.6244,3.6246,3.6252,3.6261,3.6147,3.6331,3.6629,3.6661,3.6267,3.6263,3.626,0,3.6018,3.6106,3.6211,3.6227,3.6235,3.6286,3.6292,3.6306,3.634,3.6378,3.6399,3.6448,3.6475,3.6515,3.6482,3.6409,3.6611,3.6503,3.6606,3.6607,3.6655,3.6653,3.6966,3.667,3.667,3.6669,3.6669,0,3.6253,3.6353,3.6303,3.6369,3.6479,3.6429,3.654,3.6536,3.655,3.6615,3.6547,3.661,3.6561,3.662,3.6595,3.6702,3.6714,3.6709,3.6701,3.6717,3.6718,3.6739,3.6726,3.6677,3.6675,3.6674,3.6672,0,3.6501,3.6471,3.6581,3.6579,3.6581,3.6663,3.6662,3.6724,3.6707,3.6791,3.6808,3.6784,3.685,3.682,3.689,3.6873,3.7012,3.6984,3.7005,3.6999,3.7105,3.7097,3.7445,3.749,3.7162,3.7165,3.7168,0,3.6655,3.673,3.6736,3.6774,3.6784,3.6846,3.688,3.6833,3.6872,3.6901,3.696,3.7019,3.7065,3.7175,3.7166,3.7219,3.7194,3.7313,3.7202,3.7216,3.72,3.7198,3.7207,3.7336,3.734,3.7343,3.7346,0,3.6933,3.6915,3.6965,3.7011,3.7052,3.7087,3.7115,3.715,3.7105,3.7152,3.7218,3.7254,3.7325,3.7387,3.7434,3.7441,3.7389,3.738,3.7407,3.7425,3.7436,3.7435,3.7069,3.7373,3.737,3.7368,3.7367,3.7366,3.7141,3.7205,3.7219,3.7278,3.7294,3.7323,3.7381,3.7372,3.7426,3.7479,3.7449,3.7527,3.7547,3.7604,3.762,3.7682,3.7635,3.7674,3.7684,3.7696,3.7711,3.7423,3.769,3.7689,3.7688,3.7687,3.7687,0,3.7419,3.7424,3.7478,3.752,3.7567,3.7509,3.7538,3.7582,3.7651,3.7673,3.7719,3.7797,3.7856,3.7851,3.7906,3.7957,3.7934,3.7974,3.7971,3.7975,3.7748,3.772,3.7991,3.7991,3.7991,3.7991,3.7991,3.7991,3.7569,3.7675,3.7658,3.7772,3.7776,3.7851,3.7873,3.79,3.7917,3.8007,3.8055,3.805,3.8062,3.8118,3.8171,3.8168,3.8193,3.8243,3.8231,3.802,3.799,3.7962,3.7936,3.8247,3.8248,3.8453,3.8455,3.8456]},{"header":{"parameterUnit":"m.s-1","parameterCategory":1,"la1":30.2991,"la2":30.254,"lo1":-89.0895,"lo2":-89.0444,"dy":0.0017,"dx":0.0017,"nx":28,"ny":28,"refTime":"2024-08-06T09:00:00:Z","depth":0,"parameterNumber":3,"parameterNumberName":"V-component_of_WINDS"},"data":[0,0,0,0,0,0,0,0,0,0,0,0,0,0,0,0,0,0,0,0,0,0,0,0,0,0,0,0,0,0,0,0,0,0,0,0,0,0,0,0,0,0,0,0,0,0,0,0,0,0,0,0,0,0,0,0,0,0,-2.1465,-2.1466,0,-2.1527,-2.1528,-2.1529,-2.1533,-2.1532,-2.1531,-2.1531,-2.1593,-2.1596,-2.1598,0,0,0,0,0,0,0,0,0,0,0,0,0,-2.135,-2.1352,-2.1465,-2.1466,-2.1467,-2.1527,-2.1528,-2.1529,-2.1533,-2.1532,-2.1531,-2.153,-2.1593,-2.1595,-2.1598,0,0,0,0,0,0,0,0,0,0,0,0,0,-2.1404,-2.1352,-2.1465,-2.1476,-2.1478,-2.1527,-2.1528,-2.1529,-2.1533,-2.1532,-2.1531,-2.153,-2.1592,-2.1595,-2.1598,-2.1641,0,0,-2.1609,-2.1611,0,0,0,0,0,0,0,0,-2.1401,-2.1409,-2.1474,-2.1475,-2.1477,-2.1521,-2.151,-2.1566,-2.1533,-2.1512,-2.1531,-2.1529,-2.157,-2.1575,-2.1589,-2.1644,-2.1646,-2.1609,-2.1611,-2.1613,-2.1614,0,0,0,0,0,0,0,-2.1398,-2.1406,-2.149,-2.1475,-2.1477,-2.1478,-2.1484,-2.1521,-2.1546,-2.1514,-2.1514,-2.1521,-2.1571,-2.1586,-2.1591,-2.1647,-2.1609,-2.1612,-2.1614,-2.1616,-2.1739,-2.1741,0,0,0,0,0,0,-2.1392,-2.1403,-2.1488,-2.1492,-2.1436,-2.1481,-2.1488,-2.1508,-2.1546,-2.155,-2.1522,-2.1521,-2.158,-2.1587,-2.1593,-2.1645,-2.1613,-2.1616,-2.1618,-2.1738,-2.174,-2.1741,0,0,0,0,0,0,-2.1389,-2.1399,-2.1485,-2.1447,-2.1458,-2.1484,-2.1506,-2.151,-2.1525,-2.1552,-2.1557,-2.1533,-2.158,-2.1588,-2.1629,-2.1647,-2.1618,-2.1621,-2.1737,-2.1739,-2.174,-2.1749,0,0,0,0,0,0,-2.1386,-2.1398,-2.1415,-2.1448,-2.146,-2.152,-2.1507,-2.1512,-2.1531,-2.153,-2.1563,-2.1568,-2.158,-2.1624,-2.1632,-2.1651,-2.1624,-2.1735,-2.1738,-2.174,-2.1747,-2.1751,-2.1754,0,0,0,0,0,-2.1382,-2.1415,-2.1416,-2.1426,-2.1482,-2.1521,-2.1529,-2.1542,-2.1532,-2.1549,-2.1567,-2.1567,-2.1644,-2.1628,-2.1638,-2.1658,-2.1734,-2.1737,-2.174,-2.1745,-2.175,-2.1754,0,0,0,0,0,0,-2.1383,-2.1419,-2.1421,-2.1465,-2.149,-2.1522,-2.1543,-2.1546,-2.1574,-2.1572,-2.1587,-2.1595,-2.1635,-2.1651,-2.1632,-2.1701,-2.1688,-2.1693,-2.1689,-2.1693,-2.1697,-2.1692,-2.1627,0,0,0,0,0,-2.1389,-2.1418,-2.1448,-2.1484,-2.1497,-2.1518,-2.1536,-2.1544,-2.157,-2.1581,-2.1601,-2.1627,-2.1657,-2.1676,-2.1705,-2.1749,-2.1756,-2.1768,-2.1771,-2.1774,-2.1778,-2.1802,-2.1808,-2.175,-2.175,-2.175,0,0,-2.14,-2.1423,-2.1441,-2.1485,-2.1506,-2.1536,-2.1527,-2.1559,-2.1581,-2.1586,-2.1625,-2.1641,-2.1671,-2.1713,-2.1733,-2.1728,-2.1795,-2.1777,-2.1779,-2.1782,-2.1806,-2.1811,-2.1816,-2.1752,-2.1751,-2.1751,0,0,-2.1436,-2.1457,-2.149,-2.151,-2.1541,-2.1555,-2.1563,-2.1595,-2.1605,-2.1646,-2.1649,-2.1676,-2.1727,-2.1748,-2.1765,-2.1809,-2.181,-2.1818,-2.1836,-2.1859,-2.1864,-2.1868,-2.1883,-2.1889,-2.1822,-2.1822,-2.1822,0,-2.1447,-2.1492,-2.1506,-2.1538,-2.1557,-2.1563,-2.1596,-2.1615,-2.1654,-2.1667,-2.166,-2.1724,-2.1744,-2.1792,-2.1803,-2.1816,-2.1826,-2.1814,-2.1862,-2.1866,-2.187,-2.1885,-2.1891,-2.1823,-2.1823,-2.1823,-2.1823,0,-2.1503,-2.1535,-2.1557,-2.1595,-2.1617,-2.1649,-2.1667,-2.1688,-2.1694,-2.1708,-2.1749,-2.1773,-2.1807,-2.1819,-2.1825,-2.1868,-2.1863,-2.1859,-2.1847,-2.1876,-2.1891,-2.1897,-2.1824,-2.1824,-2.1823,-2.1823,0,0,-2.1542,-2.1587,-2.1595,-2.1612,-2.1646,-2.1671,-2.1703,-2.1737,-2.1754,-2.178,-2.1808,-2.1851,-2.1847,-2.1867,-2.1875,-2.1896,-2.1929,-2.189,-2.1891,-2.1896,-2.1977,-2.1979,-2.1986,-2.193,-2.1932,-2.1932,-2.1974,0,-2.1582,-2.164,-2.1653,-2.1703,-2.1732,-2.1738,-2.1766,-2.179,-2.1805,-2.1831,-2.1847,-2.1877,-2.1871,-2.1883,-2.1903,-2.1921,-2.1946,-2.1918,-2.1956,-2.1957,-2.1948,-2.1993,-2.1996,-2.2034,-2.198,-2.1981,-2.1982,0,-2.1636,-2.1664,-2.1717,-2.1747,-2.176,-2.1785,-2.1817,-2.1842,-2.187,-2.1879,-2.1901,-2.1907,-2.1941,-2.1927,-2.1973,-2.1954,-2.197,-2.1981,-2.1983,-2.1987,-2.1971,-2.1998,-2.2047,-2.2052,-2.1991,-2.199,-2.1989,0,-2.1659,-2.1709,-2.1747,-2.1762,-2.1799,-2.1816,-2.1832,-2.1859,-2.1878,-2.1905,-2.1918,-2.1949,-2.1966,-2.199,-2.2004,-2.1993,-2.205,-2.2037,-2.2058,-2.2057,-2.2069,-2.2068,-2.2121,-2.208,-2.208,-2.208,-2.208,0,-2.1702,-2.1733,-2.1758,-2.1781,-2.1817,-2.1832,-2.1867,-2.1883,-2.1907,-2.1933,-2.194,-2.1964,-2.1982,-2.2009,-2.2021,-2.2058,-2.2065,-2.2073,-2.2076,-2.2072,-2.2071,-2.2083,-2.208,-2.2081,-2.2081,-2.2081,-2.208,0,-2.1732,-2.175,-2.1792,-2.1823,-2.1832,-2.1857,-2.1884,-2.1907,-2.1921,-2.1954,-2.1963,-2.1986,-2.2018,-2.2035,-2.2075,-2.2083,-2.2124,-2.2125,-2.2115,-2.2116,-2.2135,-2.2133,-2.2197,-2.2206,-2.216,-2.216,-2.2161,0,-2.1758,-2.1783,-2.1817,-2.1835,-2.1852,-2.1881,-2.1901,-2.1917,-2.1937,-2.197,-2.1988,-2.2021,-2.2048,-2.2099,-2.2119,-2.215,-2.2151,-2.2172,-2.2156,-2.2152,-2.2151,-2.2149,-2.2152,-2.2174,-2.2175,-2.2175,-2.2175,0,-2.1803,-2.181,-2.1838,-2.187,-2.1893,-2.1918,-2.1943,-2.1958,-2.1977,-2.2,-2.2033,-2.2054,-2.2095,-2.2127,-2.2159,-2.2175,-2.2179,-2.218,-2.2187,-2.2183,-2.2176,-2.218,-2.2122,-2.2179,-2.2178,-2.2178,-2.2178,-2.2178,-2.1832,-2.1854,-2.1881,-2.1912,-2.1933,-2.1956,-2.1979,-2.1996,-2.2024,-2.2059,-2.2067,-2.2101,-2.2128,-2.2172,-2.2189,-2.2216,-2.2212,-2.2221,-2.2224,-2.2226,-2.2226,-2.2172,-2.2222,-2.2222,-2.2222,-2.2222,-2.2222,0,-2.1876,-2.1894,-2.1922,-2.1957,-2.1982,-2.1983,-2.2011,-2.2031,-2.2061,-2.2086,-2.2112,-2.215,-2.2181,-2.2204,-2.2236,-2.2253,-2.2255,-2.2261,-2.226,-2.2263,-2.2228,-2.2219,-2.2258,-2.2258,-2.2258,-2.2258,-2.2258,-2.2258,-2.1902,-2.1939,-2.195,-2.1998,-2.2015,-2.2049,-2.2065,-2.2086,-2.2106,-2.2148,-2.2174,-2.2189,-2.2213,-2.2246,-2.2275,-2.228,-2.2292,-2.2297,-2.2303,-2.227,-2.2266,-2.2262,-2.2254,-2.2299,-2.2299,-2.2335,-2.2336,-2.2336]}]]